sat.trackr.live / text

‹ back to catalog

STARLINK-5806

NORAD 56007 · 2023-042X

PAYLOAD ACTIVE UNKNOWN

§ Identity

Operator
Country
US
Launch date
2023-03-24
Launch site
AFETR
Launch vehicle
Mass (kg)
RCS (m²)

Purposes: comms

External: N2YO · Heavens-Above · Gunter

§ Orbital elements

Epoch: 2026-09-19T17:13:35.871456Z

Period
94.27 min
Inclination
43.0060°
Eccentricity
0.0002036
Mean motion
15.27576958 rev/d
Perigee alt
481.7 km
Apogee alt
484.5 km
Semi-major
6,861.2 km
B*
8.2468e-6
RAAN
43.8235°
Arg perigee
283.7189°
Mean anomaly
76.3436°
Rev number
19,254

§ Raw data

STARLINK-58061 56007U 23042X   26262.71777629 -.00000036  00000+0  82468-5 0  99952 56007  43.0060  43.8235 0002036 283.7189  76.3436 15.27576958192542

JSON: /api/v1/satellites/56007 · /tle

For live sub-satellite position, see the globe view (requires WebGL).

§ Visibility from observer

Set your observer location to see the next 7 days of passes ≥ 10°. The values pass through the URL so the page stays shareable.

No JS? Fill the form by hand. The geolocation button needs JavaScript.